TimeMDT,TemperatureF,Dew PointF,Humidity,Sea Level PressureIn,VisibilityMPH,Wind Direction,Wind SpeedMPH,Gust SpeedMPH,PrecipitationIn,Events,Conditions,WindDirDegrees,DateUTC
12:53 AM,48.9,17.1,28,29.72,10.0,NW,5.8,-,N/A,,Clear,310,2013-04-23 06:53:00
1:53 AM,46.9,19.0,33,29.73,10.0,NW,9.2,-,N/A,,Clear,310,2013-04-23 07:53:00
2:53 AM,46.0,21.0,37,29.75,10.0,NW,12.7,-,N/A,,Scattered Clouds,320,2013-04-23 08:53:00
4:53 AM,41.0,25.0,53,29.81,10.0,NNE,8.1,-,N/A,,Partly Cloudy,20,2013-04-23 10:53:00
5:53 AM,37.9,24.1,57,29.82,10.0,NNE,3.5,-,N/A,,Clear,30,2013-04-23 11:53:00
6:53 AM,35.1,23.0,61,29.83,10.0,Calm,Calm,-,N/A,,Mostly Cloudy,0,2013-04-23 12:53:00
7:53 AM,44.1,19.0,37,29.85,10.0,NW,15.0,20.7,N/A,,Partly Cloudy,320,2013-04-23 13:53:00
8:53 AM,45.0,18.0,34,29.86,10.0,NNW,19.6,25.3,N/A,,Partly Cloudy,330,2013-04-23 14:53:00
9:53 AM,46.0,19.0,34,29.88,10.0,NNW,12.7,21.9,N/A,,Clear,330,2013-04-23 15:53:00
10:53 AM,48.0,17.1,29,29.90,10.0,NNW,9.2,17.3,N/A,,Scattered Clouds,340,2013-04-23 16:53:00
11:53 AM,50.0,12.9,23,29.92,10.0,NNW,13.8,25.3,N/A,,Clear,330,2013-04-23 17:53:00
12:53 PM,51.1,5.0,15,29.92,10.0,WNW,13.8,33.4,N/A,,Clear,300,2013-04-23 18:53:00
1:53 PM,53.1,1.0,12,29.92,10.0,West,16.1,29.9,N/A,,Clear,280,2013-04-23 19:53:00
2:53 PM,53.1,1.9,12,29.93,10.0,NNW,19.6,27.6,N/A,,Clear,330,2013-04-23 20:53:00
3:53 PM,54.0,1.0,12,29.93,10.0,WNW,18.4,27.6,N/A,,Clear,300,2013-04-23 21:53:00
4:53 PM,55.0,-0.9,10,29.94,10.0,NW,12.7,23.0,N/A,,Clear,320,2013-04-23 22:53:00
5:53 PM,54.0,-2.9,10,29.97,10.0,NW,16.1,20.7,N/A,,Clear,320,2013-04-23 23:53:00
6:53 PM,51.1,-13.0,7,29.99,10.0,NNW,15.0,23.0,N/A,,Clear,330,2013-04-24 00:53:00
7:53 PM,46.9,-4.0,12,29.96,10.0,NNW,5.8,-,N/A,,Clear,330,2013-04-24 01:53:00
8:53 PM,37.9,-2.9,18,30.03,10.0,Variable,4.6,-,N/A,,Clear,0,2013-04-24 02:53:00
9:53 PM,36.0,-0.0,22,30.06,10.0,NE,4.6,-,N/A,,Clear,50,2013-04-24 03:53:00
10:53 PM,33.1,1.0,26,30.08,10.0,NNE,5.8,-,N/A,,Clear,20,2013-04-24 04:53:00
11:53 PM,25.0,3.0,39,30.09,10.0,NE,6.9,-,N/A,,Clear,40,2013-04-24 05:53:00